#timestamp,LO_Frequency,Hit 
1598529615.5,286046998.9,N
1598529635.4,286046998.3,N
1598529655.2,286046998.7,N
1598529675.0,286046998.2,N
1598529675.9,286046998.2,N
1598529695.8,286046999.3,N
1598529715.6,286046998.6,N
1598529735.4,286046998.5,N
1598529755.3,286046996.6,P
1598529775.1,286047001.0,N
1598529795.9,286047001.0,N
1598529815.7,286047000.4,N
1598529835.5,286046999.0,N
1598529855.4,286047000.4,N
1598529875.2,286047000.5,N
1598529895.0,286046998.2,N
1598529895.9,286046998.2,N
1598529915.8,286046998.7,N
1598529935.6,286046998.6,N
1598529955.4,286046999.4,N
1598529975.3,286046999.4,N
1598529995.1,286046998.1,N
1598529996.0,286046998.1,N
1598530015.8,286046998.9,N
1598530035.7,286046998.3,N
1598530055.5,286046999.2,N
1598530075.3,286046999.4,N
1598530095.2,286046999.6,N
1598530115.9,286046999.0,N
1598530135.7,286046999.1,N
1598530155.6,286046999.0,N
1598530175.4,286046998.7,N
1598530195.2,286046999.2,N
1598530215.1,286046998.9,N
1598530216.0,286046998.9,N
1598530235.8,286046996.6,P
1598530255.6,286046998.1,N
1598530275.5,286046999.1,N
1598530295.3,286046999.1,N
1598530315.1,286046998.5,N
1598530335.9,286047001.1,N
1598530355.7,286046996.9,N
1598530375.5,286046999.6,N
1598530395.4,286046999.4,N
1598530415.2,286046999.1,N
1598530435.0,286046998.4,N
1598530435.9,286046998.4,N
1598530455.8,286046998.4,N
1598530475.6,286046999.1,N
1598530495.4,286046999.3,N
1598530515.3,286046996.9,P
1598530535.1,286047001.0,N
1598530555.9,286047001.0,N
1598530575.7,286047000.8,N
1598530595.5,286046999.3,N
1598530615.4,286046998.1,N
1598530635.2,286046999.6,N
1598530655.0,286046999.1,N
1598530655.9,286046999.1,N
1598530675.8,286046996.5,N
1598530695.6,286046997.0,N
1598530715.4,286046999.0,N
1598530735.3,286046999.1,N
1598530755.1,286046998.2,N
1598530756.0,286046998.2,N
1598530775.8,286046999.2,N
1598530795.7,286046999.2,N
1598530815.5,286046998.6,N
1598530835.3,286046999.3,N
1598530855.2,286046998.7,N
1598530875.9,286046998.7,N
1598530895.7,286046999.1,N
1598530915.6,286047000.4,N
1598530935.4,286046998.4,N
1598530955.2,286047000.6,N
1598530975.1,286047000.9,N
1598530976.0,286047000.9,N
1598530995.8,286047000.5,N
1598531015.6,286047000.7,N
1598531035.5,286047000.6,N
1598531055.3,286047002.3,N
1598531075.1,286047002.0,N
1598531095.9,286047002.0,N
1598531115.7,286047002.5,N
1598531135.5,286047001.7,N
1598531155.4,286047004.0,N
1598531175.2,286047001.6,N
1598531195.0,286047003.7,N
1598531195.9,286047003.7,N
1598531215.8,286047002.0,N
1598531235.6,286047002.3,N
1598531255.4,286047003.9,N
1598531275.3,286047001.7,N
1598531295.1,286047003.6,N
1598531296.0,286047003.6,N
1598531315.8,286047004.2,N
1598531335.7,286047004.3,N
1598531355.5,286047003.2,N
1598531375.3,286047003.5,N
1598531395.2,286047003.5,N
1598531415.9,286047005.6,P
1598531435.7,286047002.1,N
1598531455.6,286047001.4,N
1598531475.4,286047004.0,N
1598531495.2,286047001.6,N
1598531515.1,286047002.1,N
1598531516.0,286047002.1,N
1598531535.8,286047002.0,N
1598531555.6,286047001.4,N
1598531575.5,286047004.1,P
1598531595.3,286046999.8,N
1598531615.2,286047000.0,N
1598531635.9,286047001.5,N
1598531655.7,286047002.3,N
1598531675.6,286047002.8,N
1598531695.4,286047004.4,P
1598531715.2,286047000.4,N
1598531735.1,286047000.4,N
1598531736.0,286047000.4,N
1598531755.8,286047000.5,N
1598531775.6,286047001.0,N
1598531795.5,286046998.1,N
1598531815.3,286047000.2,N
1598531835.1,286047002.8,N
1598531855.9,286046999.9,N
1598531875.7,286047002.7,N
1598531895.5,286047002.7,N
1598531915.4,286047002.7,N
1598531935.2,286047002.1,N
1598531955.0,286047000.3,N
1598531955.9,286047000.3,N
1598531975.8,286047002.4,N
1598531995.6,286047001.8,N
1598532015.4,286047002.2,N
1598532035.3,286047002.6,N
1598532055.1,286047001.4,N
1598532056.0,286047001.4,N
1598532075.8,286047001.5,N
1598532095.7,286047001.9,N
1598532115.5,286047004.4,P
1598532135.3,286047002.4,N
1598532155.2,286046999.8,N
1598532175.0,286047000.4,N
1598532175.9,286047000.4,N
1598532195.8,286046999.9,N
1598532215.6,286046999.8,N
1598532235.4,286047000.0,N
1598532255.2,286047002.5,N
1598532275.1,286047000.0,N
1598532276.0,286047000.0,N
1598532295.8,286046999.8,N
1598532315.7,286047001.6,N
1598532335.5,286047002.8,N
1598532355.3,286047000.2,N
1598532375.2,286047004.3,P
1598532395.9,286047002.7,N
1598532415.7,286047002.5,N
1598532435.6,286047002.0,N
1598532455.4,286047002.4,N
1598532475.2,286047003.4,P
1598532495.1,286046998.4,P
1598532496.0,286046998.4,N
1598532515.8,286047000.7,N
1598532535.6,286047001.1,N
1598532555.5,286046999.3,N
1598532575.3,286046998.3,N
1598532595.1,286046998.4,N
1598532615.9,286047000.8,N
1598532635.7,286046998.4,N
1598532655.5,286046999.3,N
1598532675.4,286046998.6,N
1598532695.2,286047000.8,N
1598532715.0,286047000.6,N
1598532715.9,286047000.6,N
1598532735.8,286047000.4,N
1598532755.6,286047000.0,N
1598532775.4,286047000.0,N
1598532795.3,286046999.7,N
1598532815.1,286046999.7,N
1598532835.9,286047002.1,N
1598532855.7,286047004.0,N
1598532875.5,286047003.8,N
1598532895.4,286047001.9,N
1598532915.2,286047004.3,N
1598532935.0,286047003.4,N
1598532935.9,286047003.4,N
1598532955.8,286047003.2,N
1598532975.6,286047003.5,N
1598532995.4,286047003.0,N
1598533015.2,286047004.9,N
1598533035.1,286047007.6,P
1598533036.0,286047007.6,N
1598533055.8,286047004.8,N
1598533075.7,286047005.6,N
1598533095.5,286047004.5,N
1598533115.3,286047005.8,N
1598533135.2,286047005.0,N
1598533155.9,286047007.2,P
1598533175.7,286047000.2,N
1598533195.6,286047000.8,N
